Погода Нижне-Усинское

Погода Нижне-Усинское : погода сейчас, прогноз погоды и архив. Всё, что Вы хотите узнать о погоде Нижне-Усинское!

Поиск расширенной информации на нашем сайте:

Другие новости

Новости СМИ2

Главная страница сайта

Новости сайта

03.07.2017

Напоминаем, что на нашем специализированном сайте Метеоцентр.Азия вы можете получить высокодетализированные автоматические прогнозы погоды по пунктам России, СНГ и мира в авиационном формате (включающие направление и скорость ветра, видимость, явления погоды, количество и форму облачности, нижнюю и верхнюю границу облачности).


Погода Нижне-Усинское - сегодня

Время (UTC), дата Ветер
(°,м/с) 
Видим.   Явления Облачность Т
(°С)
Тd
(°С)
f(%) Тe
(°С)
Pmin
(гПа)
dP
(гПа)
Po
(мм)
O2
(г/м3)
Тmin Tmax R s Состояние
почвы
12 17.02.18 тихо ()   н/о    ясно 
-16 -18.7 80 -16  1040.1  -0.5  715  307    -5.4       
15 17.02.18 тихо ()   н/о    6/6 1000 м 
[Sc]
-22 -23.3 89 -22  1046.5  3.4  717  316           
18 17.02.18 тихо ()   н/о    н/о 
-25.3 -26.7 88 -25               
21 17.02.18 тихо ()   н/о    ясно 
-26.8 -28.4 86 -27  1046.8  -0.6  717  322           
00 18.02.18 тихо ()   н/о    ясно 
-28.9 -30.7 84 -29  1048.5  0.7  717  325  -29      28  равномерный
сухой снег
100% 
03 18.02.18 тихо ()   20000 м    3/3 1000 м 
[Sc]
-22.7 -23.9 90 -23  1046.7  0.6  718  317           
06 18.02.18 тихо ()   20000 м    ясно 
-15.5 -21.5 60 -16  1043.1  -1  717  308           
09 18.02.18 тихо ()   20000 м    ясно 
-11.4 -18.7 55 -11  1039.3  -2.1  716  302           
12 18.02.18 тихо ()   н/о    4/4 1000 м 
[Sc]
-18.1 -20 85 -18  1040.8  -0.8  715  310    -9.9       
15 18.02.18 тихо ()   н/о    ясно 
-23.7 -25 89 -24  1043.2  0.3  715  317           
18 18.02.18 тихо ()   н/о    ясно 
-25.3 -26.6 89 -25  1044  0.2  715  319           
21 18.02.18 тихо ()   н/о    ясно 
-27.5 -29.3 85 -28  1045.2  0.3  716  322           
00 19.02.18 тихо ()   н/о    ясно 
-28.7 -30.6 84 -29  1046.8  1.1  716  324  -28.8      27  равномерный
сухой снег
100% 
06 19.02.18 тихо ()   20000 м    10/10 2000 м 
[As trans]
-14.5 -20.6 60 -15  1042.4  -1.2  717  307           
09 19.02.18 тихо ()   20000 м    10/10 2000 м 
[As trans]
-12.1 -18.3 60 -12  1039.8  -1.6  716  303           
12 19.02.18 тихо ()   н/о    9/8 1000 м средняя, верхняя 
[Sc|Ac trans|Ci sp]
-15.2 -17.9 80 -15  1041.4  0.5  716  307    -11.5       
15 19.02.18 тихо ()   н/о    6/6 1000 м 
[Sc]
-20.2 -21.4 90 -20  1044.6  1.3  717  314           
18 19.02.18 тихо ()   н/о    6/6 1000 м 
[Sc]
-21 -22.2 90 -21  1043.8  -1  716  314           
21 19.02.18 тихо ()   н/о    4/4 1000 м 
[Sc]
-22.3 -23.6 89 -22  1045.6  1.2  717  316           
00 20.02.18 тихо ()   н/о    4/4 1000 м 
[Sc]
-24.3 -25.5 90 -24  1046.8  0.4  717  319  -24.4      27  равномерный
сухой снег
100% 
03 20.02.18 тихо ()   20000 м    10/10 2000 м 
[As trans]
-20.4 -22.6 82 -20  1046.5  1.1  718  314           
06 20.02.18 тихо ()   20000 м    9/6 1000 м средняя, верхняя 
[Sc|Ac trans|Ci sp]
-12.4 -17.6 65 -12  1041.9  -1.6  717  304           
09 20.02.18 тихо ()   20000 м    6/4 1000 м верхняя 
[Sc|Ci fib]
-9.7 -16.1 60 -10  1039.1  -1.7  716  300           
12 20.02.18 тихо ()   н/о    4/4 1000 м 
[Sc]
-16.3 -18.2 85 -16  1039.8  -1.6  715  308    -8.3       
15 20.02.18 тихо ()   н/о    3/3 1000 м 
[Sc]
-18.3 -19.5 90 -18  1040.8  0.3  715  310           
Время (UTC), дата Ветер
(°,м/с) 
Видим.   Явления Облачность Т
(°С)
Тd
(°С)
f(%) Тe
(°С)
Pmin
(гПа)
dP
(гПа)
Po
(мм)
O2
(г/м3)
Тmin Tmax R s Состояние
почвы

Для получения пояснительной информации подведите курсор к названию столбца.

ПОГОДА Нижне-Усинское - архив

Всё, что Вы хотите узнать о погоде Нижне-Усинское - удобно и подробно!

Выберите нужную дату (начиная с 1 января 2015* года) и нажмите кнопку "Найти".
Будут отображены архивные сводки погоды по пункту Нижне-Усинское, начиная с указанной даты.


Отображать данные в формате CSV (для использования в таблицах Excel)


Внимание! Наш архив погоды предназначен исключительно для личного некоммерческого использования в познавательных целях. Если Вам необходимы официальные справки о состоянии погоды (для производственных, юридических, коммерческих и т.п. целей), обращайтесь в органы Росгидромета.

*Примечание: данная дата относится к архиву по метеостанциям СССР (Россия, СНГ, Балтия).
Архив по метеостанциям Зарубежной Европы и Азии (кроме Китая) хранится 10 дней, по другим регионам земного шара (Китай, Африка, Америка, Австралия, Океания) - 1 день.

Нижне-Усинское - район местоположения метеостанции


Название, широта, долгота, высота метеостанции:
Нижне-Усинское 52.3°ш. 93°д. 660 м над ур. моря [Российская Федерация]

Дополнительная информация

В oтличие oт бoльшинства пoгoдных сайтoв мы публикуем пoдрoбную метеoинфoрмацию в детальнoм прoфессиoнальнoм фoрмате.

Характеристики температуры и влажнoсти вoздуха измеряются на высoте 2 м в тени вдали oт зданий и деревьев.
Скoрoсть ветра измеряется на высoте 10 м (на урoвне рoста челoвека скoрoсть ветра ниже в 1.5-2 раза). Если метеoстанция нахoдится в гoрoде или в лесу, тo скoрoсть ветра занижена на 2-4 м/с пo сравнению с oткрытым местoм. Скoрoсть ветра над акватoриями крупных рек и oзёр, а также на вершинах хoлмoв на 2-5 м/с выше, чем в oбычных услoвиях.
Атмoсфернoе давление в разных тoчках местнoсти мoжет значительнo oтличаться oт давления на метеoстанции, в зависимoсти oт услoвий рельефа (при пoдъёме на 10 м давление пoнижается примернo на 1 мм рт.ст.).